TimeCDT,TemperatureF,Dew PointF,Humidity,Sea Level PressureIn,VisibilityMPH,Wind Direction,Wind SpeedMPH,Gust SpeedMPH,PrecipitationIn,Events,Conditions,WindDirDegrees,DateUTC
12:15 AM,51.8,51.6,99,30.07,0.5,Calm,Calm,-,N/A,,Unknown,0,2013-09-04 05:15:00
12:35 AM,51.1,50.5,98,30.07,2.5,Calm,Calm,-,N/A,,Clear,0,2013-09-04 05:35:00
12:55 AM,51.1,50.9,99,30.07,0.2,Calm,Calm,-,N/A,,Unknown,0,2013-09-04 05:55:00
1:15 AM,50.7,50.2,98,30.07,0.5,Calm,Calm,-,N/A,,Unknown,0,2013-09-04 06:15:00
1:35 AM,51.3,50.9,99,30.07,10.0,Calm,Calm,-,N/A,,Clear,0,2013-09-04 06:35:00
1:55 AM,52.0,51.6,99,30.08,0.8,Calm,Calm,-,N/A,,Unknown,0,2013-09-04 06:55:00
2:15 AM,51.1,50.9,99,30.08,2.0,Calm,Calm,-,N/A,,Clear,0,2013-09-04 07:15:00
2:35 AM,50.0,49.8,99,30.08,7.0,Calm,Calm,-,N/A,,Clear,0,2013-09-04 07:35:00
2:55 AM,49.5,49.3,99,30.08,4.0,Calm,Calm,-,N/A,,Clear,0,2013-09-04 07:55:00
3:15 AM,49.6,49.5,99,30.08,7.0,Calm,Calm,-,N/A,,Clear,0,2013-09-04 08:15:00
3:35 AM,49.8,49.6,99,30.09,2.0,Calm,Calm,-,N/A,,Clear,0,2013-09-04 08:35:00
3:55 AM,48.6,48.6,100,30.09,0.2,Calm,Calm,-,N/A,,Mostly Cloudy,0,2013-09-04 08:55:00
4:15 AM,48.4,48.4,100,30.09,0.2,Calm,Calm,-,N/A,,Mostly Cloudy,0,2013-09-04 09:15:00
4:35 AM,48.2,48.2,100,30.10,0.2,Calm,Calm,-,N/A,,Unknown,0,2013-09-04 09:35:00
4:55 AM,47.5,47.1,99,30.10,0.2,Calm,Calm,-,N/A,,Unknown,0,2013-09-04 09:55:00
5:15 AM,46.9,46.8,99,30.10,0.5,Calm,Calm,-,N/A,,Unknown,0,2013-09-04 10:15:00
5:35 AM,47.1,46.9,99,30.11,0.2,Calm,Calm,-,N/A,,Unknown,0,2013-09-04 10:35:00
5:55 AM,46.4,46.0,99,30.11,0.5,Calm,Calm,-,N/A,,Unknown,0,2013-09-04 10:55:00
6:15 AM,46.4,46.0,99,30.12,0.2,Calm,Calm,-,N/A,,Unknown,0,2013-09-04 11:15:00
6:35 AM,46.8,46.6,99,30.12,0.2,SSW,3.5,-,N/A,,Unknown,200,2013-09-04 11:35:00
6:55 AM,47.3,47.1,99,30.12,1.2,Calm,Calm,-,N/A,,Unknown,0,2013-09-04 11:55:00
7:15 AM,49.3,49.1,99,30.12,4.0,Calm,Calm,-,N/A,,Clear,0,2013-09-04 12:15:00
7:35 AM,52.5,52.3,99,30.13,3.0,Calm,Calm,-,N/A,,Clear,0,2013-09-04 12:35:00
7:55 AM,55.9,55.8,99,30.13,10.0,West,3.5,-,N/A,,Clear,280,2013-09-04 12:55:00
8:15 AM,58.1,57.9,99,30.13,10.0,Calm,Calm,-,N/A,,Clear,0,2013-09-04 13:15:00
8:35 AM,60.3,60.3,100,30.13,10.0,WSW,4.6,-,N/A,,Clear,240,2013-09-04 13:35:00
8:55 AM,62.4,61.2,96,30.13,10.0,WSW,3.5,-,N/A,,Clear,240,2013-09-04 13:55:00
9:15 AM,64.2,61.5,91,30.13,10.0,WSW,6.9,-,N/A,,Clear,250,2013-09-04 14:15:00
9:35 AM,66.4,60.8,82,30.13,10.0,West,8.1,-,N/A,,Clear,260,2013-09-04 14:35:00
9:55 AM,67.8,60.4,77,30.13,10.0,West,8.1,-,N/A,,Clear,260,2013-09-04 14:55:00
10:15 AM,70.0,60.6,72,30.14,10.0,West,6.9,-,N/A,,Clear,260,2013-09-04 15:15:00
10:35 AM,71.2,61.0,70,30.13,10.0,WSW,5.8,-,N/A,,Clear,240,2013-09-04 15:35:00
10:55 AM,72.7,60.3,65,30.13,10.0,WSW,10.4,-,N/A,,Clear,240,2013-09-04 15:55:00
11:15 AM,73.8,60.1,62,30.13,10.0,West,9.2,-,N/A,,Clear,270,2013-09-04 16:15:00
11:35 AM,74.7,59.5,59,30.14,10.0,WSW,11.5,-,N/A,,Clear,250,2013-09-04 16:35:00
11:55 AM,75.6,59.2,57,30.13,10.0,NW,6.9,-,N/A,,Clear,320,2013-09-04 16:55:00
12:15 PM,76.3,58.6,54,30.13,10.0,WSW,8.1,-,N/A,,Clear,250,2013-09-04 17:15:00
12:35 PM,77.0,57.9,52,30.13,10.0,WSW,10.4,-,N/A,,Clear,250,2013-09-04 17:35:00
12:55 PM,77.7,55.8,47,30.13,10.0,WSW,6.9,-,N/A,,Clear,250,2013-09-04 17:55:00
1:15 PM,78.1,56.5,47,30.13,10.0,West,6.9,-,N/A,,Clear,280,2013-09-04 18:15:00
1:35 PM,78.4,55.8,45,30.12,10.0,West,8.1,-,N/A,,Clear,280,2013-09-04 18:35:00
1:55 PM,79.2,54.5,42,30.12,10.0,WSW,8.1,17.3,N/A,,Clear,250,2013-09-04 18:55:00
2:15 PM,79.7,54.5,42,30.11,10.0,WSW,4.6,-,N/A,,Clear,250,2013-09-04 19:15:00
2:35 PM,80.2,53.1,39,30.11,10.0,WNW,10.4,-,N/A,,Clear,290,2013-09-04 19:35:00
2:55 PM,80.6,51.6,36,30.11,10.0,NW,5.8,-,N/A,,Clear,310,2013-09-04 19:55:00
3:15 PM,80.8,53.4,39,30.10,10.0,WNW,5.8,-,N/A,,Clear,300,2013-09-04 20:15:00
3:35 PM,81.0,52.0,36,30.10,10.0,NW,9.2,-,N/A,,Clear,310,2013-09-04 20:35:00
3:55 PM,81.0,51.1,35,30.10,10.0,West,6.9,-,N/A,,Clear,280,2013-09-04 20:55:00
4:15 PM,80.8,52.2,37,30.10,10.0,West,6.9,-,N/A,,Clear,280,2013-09-04 21:15:00
4:35 PM,80.6,52.3,37,30.09,10.0,West,9.2,-,N/A,,Clear,260,2013-09-04 21:35:00
4:55 PM,80.6,51.6,36,30.08,10.0,West,5.8,-,N/A,,Clear,280,2013-09-04 21:55:00
5:15 PM,80.2,50.4,35,30.08,10.0,NW,4.6,-,N/A,,Clear,310,2013-09-04 22:15:00
5:35 PM,79.9,50.9,36,30.08,10.0,WNW,6.9,-,N/A,,Clear,300,2013-09-04 22:35:00
5:55 PM,79.5,52.2,38,30.08,10.0,WNW,3.5,-,N/A,,Clear,290,2013-09-04 22:55:00
6:15 PM,78.3,54.7,44,30.08,10.0,WNW,3.5,-,N/A,,Clear,300,2013-09-04 23:15:00
6:35 PM,76.6,55.8,48,30.08,10.0,NW,3.5,-,N/A,,Clear,310,2013-09-04 23:35:00
6:55 PM,75.0,56.7,53,30.08,10.0,Calm,Calm,-,N/A,,Clear,0,2013-09-04 23:55:00
7:15 PM,71.8,58.3,62,30.08,10.0,Calm,Calm,-,N/A,,Clear,0,2013-09-05 00:15:00
7:35 PM,67.8,61.9,81,30.09,10.0,Calm,Calm,-,N/A,,Clear,0,2013-09-05 00:35:00
7:55 PM,64.8,61.3,89,30.10,10.0,SW,3.5,-,N/A,,Clear,220,2013-09-05 00:55:00
8:15 PM,63.5,60.6,90,30.10,10.0,SW,3.5,-,N/A,,Clear,220,2013-09-05 01:15:00
8:35 PM,63.0,60.6,92,30.11,10.0,Calm,Calm,-,N/A,,Clear,0,2013-09-05 01:35:00
8:55 PM,63.3,60.8,91,30.11,10.0,Calm,Calm,-,N/A,,Clear,0,2013-09-05 01:55:00
9:15 PM,63.0,60.8,93,30.12,10.0,Calm,Calm,-,N/A,,Clear,0,2013-09-05 02:15:00
9:35 PM,62.1,60.3,94,30.12,10.0,Calm,Calm,-,N/A,,Clear,0,2013-09-05 02:35:00
9:55 PM,62.4,60.6,94,30.12,10.0,Calm,Calm,-,N/A,,Clear,0,2013-09-05 02:55:00
10:15 PM,60.8,59.2,94,30.12,10.0,Calm,Calm,-,N/A,,Clear,0,2013-09-05 03:15:00
10:35 PM,59.7,58.5,96,30.12,10.0,Calm,Calm,-,N/A,,Clear,0,2013-09-05 03:35:00
10:55 PM,59.5,58.5,96,30.12,10.0,Calm,Calm,-,N/A,,Clear,0,2013-09-05 03:55:00
11:15 PM,59.0,57.7,96,30.12,10.0,SSW,4.6,-,N/A,,Clear,200,2013-09-05 04:15:00
11:35 PM,57.7,57.0,97,30.12,10.0,SW,3.5,-,N/A,,Clear,220,2013-09-05 04:35:00
11:55 PM,57.6,56.8,97,30.12,10.0,Calm,Calm,-,N/A,,Clear,0,2013-09-05 04:55:00